| time (UTC) | temp F | wind direction | speed knots | gust knots | rain 1hr in | rain 24hr in | rain mn in | humidity % | barometer mb |
| 20260507113002 | 45 | 5 | 0.0 | 0.9 | 0.00 | 0.00 | 0.00 | 1 | 1017.4 |
| 20260507111557 | 45 | 248 | 0.0 | 0.0 | 0.00 | 0.00 | 0.00 | 1 | 1017.3 |
| 20260507110053 | 45 | 248 | 0.0 | 0.9 | 0.00 | 0.00 | 0.00 | 1 | 1017.2 |
| 20260507104548 | 45 | 255 | 0.0 | 0.0 | 0.00 | 0.00 | 0.00 | 1 | 1017.3 |
| 20260507103043 | 46 | 255 | 0.0 | 0.0 | 0.00 | 0.00 | 0.00 | 1 | 1017.4 |
| 20260507101545 | 46 | 255 | 0.0 | 0.0 | 0.00 | 0.00 | 0.00 | 1 | 1017.5 |
| 20260507100037 | 46 | 255 | 0.0 | 0.0 | 0.00 | 0.00 | 0.00 | 1 | 1017.6 |
| 20260507094531 | 46 | 254 | 0.0 | 0.0 | 0.00 | 0.00 | 0.00 | 1 | 1017.5 |
| 20260507093036 | 47 | 255 | 0.0 | 0.0 | 0.00 | 0.00 | 0.00 | 1 | 1017.5 |
| 20260507091522 | 47 | 255 | 0.0 | 0.0 | 0.00 | 0.00 | 0.00 | 1 | 1017.5 |
| 20260507090028 | 48 | 255 | 0.0 | 0.0 | 0.00 | 0.00 | 0.00 | 1 | 1017.8 |
| 20260507084513 | 48 | 255 | 0.0 | 0.0 | 0.00 | 0.00 | 0.00 | 1 | 1017.8 |
| 20260507083015 | 48 | 254 | 0.0 | 0.9 | 0.00 | 0.00 | 0.00 | 1 | 1017.6 |
| 20260507081504 | 48 | 178 | 0.0 | 0.0 | 0.00 | 0.00 | 0.00 | 1 | 1017.7 |
| 20260507080135 | 48 | 178 | 0.0 | 0.0 | 0.00 | 0.00 | 0.00 | 1 | 1017.5 |
| 20260507074603 | 48 | 178 | 0.0 | 0.0 | 0.00 | 0.00 | 0.00 | 1 | 1017.4 |
| 20260507073059 | 49 | 178 | 0.0 | 0.0 | 0.00 | 0.00 | 0.00 | 1 | 1017.3 |
| 20260507071559 | 49 | 178 | 0.0 | 0.0 | 0.00 | 0.00 | 0.00 | 1 | 1017.2 |
| 20260507070042 | 50 | 178 | 0.0 | 0.0 | 0.00 | 0.00 | 0.00 | 1 | 1017.3 |
| 20260507064537 | 50 | 177 | 0.0 | 0.0 | 0.00 | 0.00 | 0.00 | 1 | 1017.2 |
| 20260507063038 | 51 | 177 | 0.0 | 0.0 | 0.00 | 0.00 | 0.00 | 1 | 1017.2 |
| 20260507061529 | 51 | 160 | 0.0 | 0.0 | 0.00 | 0.00 | 0.00 | 1 | 1017.3 |
| 20260507060024 | 51 | 163 | 0.0 | 0.0 | 0.00 | 0.00 | 0.00 | 1 | 1017.3 |
| 20260507054520 | 51 | 163 | 0.0 | 0.0 | 0.00 | 0.00 | 0.00 | 1 | 1017.4 |
| 20260507053016 | 51 | 163 | 0.0 | 0.0 | 0.00 | 0.00 | 0.00 | 1 | 1017.3 |
| 20260507051511 | 51 | 163 | 0.0 | 0.0 | 0.00 | 0.00 | 0.00 | 1 | 1017.4 |
| 20260507050008 | 51 | 163 | 0.0 | 0.0 | 0.00 | 0.00 | 0.00 | 1 | 1017.4 |
| 20260507044502 | 51 | 163 | 0.0 | 0.0 | 0.00 | 0.00 | 0.00 | 1 | 1017.5 |
| 20260507043059 | 52 | 243 | 0.0 | 0.9 | 0.00 | 0.00 | 0.00 | 1 | 1017.4 |
| 20260507041600 | 52 | 246 | 0.0 | 0.0 | 0.00 | 0.00 | 0.00 | 1 | 1017.3 |
| 20260507040058 | 52 | 126 | 0.0 | 0.9 | 0.00 | 0.00 | 0.00 | 1 | 1017.3 |
| 20260507034554 | 52 | 140 | 0.0 | 0.9 | 0.00 | 0.00 | 0.00 | 1 | 1017.2 |
| 20260507033043 | 53 | 141 | 0.0 | 0.0 | 0.00 | 0.00 | 0.00 | 1 | 1017.0 |
| 20260507031535 | 53 | 114 | 0.0 | 0.9 | 0.00 | 0.00 | 0.00 | 1 | 1016.9 |
| 20260507030032 | 53 | 82 | 0.0 | 0.0 | 0.00 | 0.00 | 0.00 | 1 | 1016.9 |
| 20260507024526 | 53 | 82 | 0.0 | 0.0 | 0.00 | 0.00 | 0.00 | 1 | 1017.0 |
| 20260507023022 | 54 | 82 | 0.0 | 0.0 | 0.00 | 0.00 | 0.00 | 1 | 1016.9 |
| 20260507021517 | 54 | 196 | 0.0 | 0.0 | 0.00 | 0.00 | 0.00 | 1 | 1017.0 |
| 20260507020013 | 54 | 196 | 0.0 | 0.0 | 0.00 | 0.00 | 0.00 | 1 | 1017.0 |
| 20260507014509 | 54 | 165 | 0.0 | 0.0 | 0.00 | 0.00 | 0.00 | 1 | 1016.9 |
| 20260507013005 | 54 | 165 | 0.0 | 0.0 | 0.00 | 0.00 | 0.00 | 5 | 1016.8 |
| 20260507011605 | 54 | 165 | 0.0 | 0.0 | 0.00 | 0.00 | 0.00 | 4 | 1016.8 |
| 20260507010056 | 55 | 166 | 0.0 | 0.0 | 0.00 | 0.00 | 0.00 | 7 | 1016.8 |
| 20260507004551 | 55 | 155 | 0.0 | 0.0 | 0.00 | 0.00 | 0.00 | 3 | 1016.8 |
| 20260507003047 | 55 | 150 | 0.0 | 0.0 | 0.00 | 0.00 | 0.00 | 8 | 1016.8 |
| 20260507001550 | 55 | 150 | 0.0 | 0.0 | 0.00 | 0.00 | 0.00 | 12 | 1016.7 |
| 20260507000040 | 55 | 149 | 0.0 | 0.0 | 0.00 | 0.00 | 0.00 | 11 | 1016.8 |
| 20260506234542 | 55 | 244 | 0.0 | 0.0 | 0.00 | 0.00 | 0.00 | 8 | 1016.7 |
| 20260506233030 | 55 | 143 | 0.0 | 0.0 | 0.00 | 0.00 | 0.00 | 7 | 1016.7 |
| 20260506231526 | 55 | 144 | 0.0 | 0.0 | 0.00 | 0.00 | 0.00 | 6 | 1016.8 |
| 20260506230020 | 54 | 150 | 0.0 | 0.0 | 0.00 | 0.00 | 0.00 | 7 | 1016.8 |
| 20260506224524 | 54 | 41 | 0.0 | 0.9 | 0.00 | 0.00 | 0.00 | 17 | 1017.0 |
| 20260506223012 | 55 | 259 | 0.0 | 0.9 | 0.00 | 0.00 | 0.00 | 18 | 1016.9 |
| 20260506221507 | 55 | 255 | 0.0 | 0.9 | 0.00 | 0.00 | 0.00 | 21 | 1016.9 |
| 20260506220002 | 55 | 257 | 0.0 | 0.9 | 0.00 | 0.00 | 0.00 | 30 | 1017.0 |
| 20260506214558 | 55 | 112 | 0.0 | 0.9 | 0.00 | 0.00 | 0.00 | 31 | 1016.9 |
| 20260506213101 | 55 | 128 | 0.0 | 0.9 | 0.00 | 0.00 | 0.00 | 36 | 1016.8 |
| 20260506211548 | 56 | 224 | 0.0 | 0.9 | 0.00 | 0.00 | 0.00 | 38 | 1016.9 |
| 20260506210048 | 56 | 147 | 0.0 | 0.0 | 0.00 | 0.00 | 0.00 | 34 | 1016.9 |
| 20260506204540 | 55 | 147 | 0.0 | 0.0 | 0.00 | 0.00 | 0.00 | 34 | 1016.9 |
| 20260506203101 | 56 | 147 | 0.0 | 0.0 | 0.00 | 0.00 | 0.00 | 31 | 1016.8 |
| 20260506201531 | 55 | 148 | 0.0 | 0.0 | 0.00 | 0.00 | 0.00 | 19 | 1016.8 |
| 20260506200031 | 54 | 185 | 0.0 | 0.0 | 0.00 | 0.00 | 0.00 | 14 | 1016.8 |
| 20260506194523 | 54 | 226 | 0.0 | 0.9 | 0.00 | 0.00 | 0.00 | 7 | 1016.8 |
| 20260506193018 | 53 | 230 | 0.0 | 0.9 | 0.00 | 0.00 | 0.00 | 3 | 1016.8 |
| 20260506191517 | 53 | 223 | 0.0 | 0.0 | 0.00 | 0.00 | 0.00 | 2 | 1016.8 |
| 20260506190009 | 52 | 65 | 0.0 | 0.0 | 0.00 | 0.00 | 0.00 | 3 | 1016.7 |
| 20260506184505 | 53 | 200 | 0.0 | 0.0 | 0.00 | 0.00 | 0.00 | 1 | 1016.5 |
| 20260506183000 | 52 | 200 | 0.0 | 0.0 | 0.00 | 0.00 | 0.00 | 1 | 1016.4 |
| 20260506181601 | 52 | 278 | 0.0 | 0.0 | 0.00 | 0.00 | 0.00 | 1 | 1016.4 |
| 20260506180054 | 52 | 278 | 0.0 | 0.0 | 0.00 | 0.00 | 0.00 | 1 | 1016.4 |
| 20260506174605 | 52 | 278 | 0.0 | 0.9 | 0.00 | 0.00 | 0.00 | 1 | 1016.3 |
| 20260506173053 | 52 | 89 | 0.0 | 1.7 | 0.00 | 0.00 | 0.00 | 1 | 1016.2 |
| 20260506171542 | 52 | 198 | 0.0 | 0.0 | 0.00 | 0.00 | 0.00 | 1 | 1016.2 |
| 20260506170036 | 52 | 198 | 0.0 | 0.0 | 0.00 | 0.00 | 0.00 | 1 | 1016.1 |
| 20260506164533 | 52 | 199 | 0.0 | 0.0 | 0.00 | 0.00 | 0.00 | 1 | 1016.0 |
| 20260506163047 | 52 | 162 | 0.0 | 0.9 | 0.00 | 0.00 | 0.00 | 1 | 1015.7 |
| 20260506161526 | 51 | 233 | 0.0 | 0.0 | 0.00 | 0.00 | 0.00 | 1 | 1015.9 |
| 20260506160020 | 51 | 206 | 0.0 | 0.0 | 0.00 | 0.00 | 0.00 | 1 | 1015.7 |
| 20260506154528 | 51 | 206 | 0.0 | 0.0 | 0.00 | 0.00 | 0.00 | 1 | 1015.9 |
| 20260506153011 | 50 | 206 | 0.0 | 0.9 | 0.00 | 0.00 | 0.00 | 1 | 1016.1 |
| 20260506151506 | 50 | 221 | 0.0 | 0.0 | 0.00 | 0.00 | 0.00 | 1 | 1015.8 |
| 20260506144556 | 50 | 221 | 0.0 | 0.0 | 0.00 | 0.00 | 0.00 | 1 | 1015.5 |
| 20260506143051 | 0 | 0.0 | 0.0 | 0.00 | 0.00 | 0.00 | 1015.1 | ||
| 20260506141548 | 0 | 0.0 | 0.0 | 0.00 | 0.00 | 0.00 | 1015.1 | ||
| 20260506140043 | 0 | 0.0 | 0.0 | 0.00 | 0.00 | 0.00 | 1015.3 | ||
| 20260506134538 | 0 | 0.0 | 0.0 | 0.00 | 0.00 | 0.00 | 1014.9 | ||
| 20260506133034 | 0 | 0.0 | 0.0 | 0.00 | 0.00 | 0.00 | 1014.8 | ||
| 20260506131535 | 0 | 0.0 | 0.0 | 0.00 | 0.00 | 0.00 | 1014.9 | ||
| 20260506130126 | 0 | 0.0 | 0.0 | 0.00 | 0.00 | 0.00 | 1014.7 | ||
| 20260506124521 | 0 | 0.0 | 0.0 | 0.00 | 0.00 | 0.00 | 1014.7 | ||
| 20260506123017 | 50 | 301 | 0.0 | 0.0 | 0.00 | 0.00 | 0.00 | 1 | 1014.5 |
| 20260506121513 | 50 | 301 | 0.0 | 0.0 | 0.00 | 0.00 | 0.00 | 1 | 1014.8 |
| 20260506120012 | 50 | 301 | 0.0 | 0.0 | 0.00 | 0.00 | 0.00 | 1 | 1014.8 |
| 20260506114504 | 50 | 301 | 0.0 | 0.0 | 0.00 | 0.00 | 0.00 | 1 | 1014.7 |